Time,TemperatureF,DewpointF,PressureIn,WindDirection,WindDirectionDegrees,WindSpeedMPH,WindSpeedGustMPH,Humidity,HourlyPrecipIn,Conditions,Clouds,dailyrainin,SoftwareType,DateUTC
2013-08-18 00:01:00,66.8,60.5,30.01,NE,45,0.0,0.0,80,0.00,,,0.00,WUHU216HW,2013-08-18 05:01:00,
2013-08-18 00:06:00,66.6,60.7,30.01,NE,45,0.0,0.0,81,0.00,,,0.00,WUHU216HW,2013-08-18 05:06:00,
2013-08-18 00:11:00,66.6,60.7,30.01,NE,45,0.0,0.0,81,0.00,,,0.00,WUHU216HW,2013-08-18 05:11:00,
2013-08-18 00:16:00,66.4,60.5,30.01,NE,45,0.0,0.0,81,0.00,,,0.00,WUHU216HW,2013-08-18 05:16:00,
2013-08-18 00:21:00,66.4,60.5,30.01,ENE,68,0.0,0.0,81,0.00,,,0.00,WUHU216HW,2013-08-18 05:21:00,
2013-08-18 00:26:00,66.2,60.6,30.01,ENE,68,0.0,0.2,82,0.00,,,0.00,WUHU216HW,2013-08-18 05:26:00,
2013-08-18 00:31:00,66.2,60.6,30.01,NE,45,0.2,0.4,82,0.00,,,0.00,WUHU216HW,2013-08-18 05:31:00,
2013-08-18 00:36:00,66.1,60.4,30.01,NE,45,0.0,0.4,82,0.00,,,0.00,WUHU216HW,2013-08-18 05:36:00,
2013-08-18 00:41:00,66.1,60.4,30.01,NE,45,0.0,0.2,82,0.00,,,0.00,WUHU216HW,2013-08-18 05:41:00,
2013-08-18 00:46:00,65.9,60.2,30.01,NE,45,0.0,0.2,82,0.00,,,0.00,WUHU216HW,2013-08-18 05:46:00,
2013-08-18 00:51:00,65.9,60.6,30.01,NE,45,0.0,0.0,83,0.00,,,0.00,WUHU216HW,2013-08-18 05:51:00,
2013-08-18 00:56:00,65.9,60.2,30.01,NE,45,0.0,0.0,82,0.00,,,0.00,WUHU216HW,2013-08-18 05:56:00,
2013-08-18 01:01:00,65.9,60.6,30.01,NE,45,0.0,0.0,83,0.00,,,0.00,WUHU216HW,2013-08-18 06:01:00,
2013-08-18 01:06:00,65.9,60.6,30.01,NE,45,0.0,0.0,83,0.00,,,0.00,WUHU216HW,2013-08-18 06:06:00,
2013-08-18 01:11:00,65.9,60.6,30.01,NE,45,0.0,0.0,83,0.00,,,0.00,WUHU216HW,2013-08-18 06:11:00,
2013-08-18 01:16:00,65.7,60.4,30.01,NE,45,0.0,0.0,83,0.00,,,0.00,WUHU216HW,2013-08-18 06:16:00,
2013-08-18 01:21:00,65.7,60.4,30.01,NE,45,0.0,0.0,83,0.00,,,0.00,WUHU216HW,2013-08-18 06:21:00,
2013-08-18 01:26:00,65.5,60.6,30.01,NE,45,0.0,0.0,84,0.00,,,0.00,WUHU216HW,2013-08-18 06:26:00,
2013-08-18 01:31:00,65.5,60.6,30.01,NE,45,0.0,0.0,84,0.00,,,0.00,WUHU216HW,2013-08-18 06:31:00,
2013-08-18 01:36:00,65.5,60.6,30.01,NE,45,0.0,0.0,84,0.00,,,0.00,WUHU216HW,2013-08-18 06:36:00,
2013-08-18 01:41:00,65.5,60.6,30.01,NE,45,0.0,0.2,84,0.00,,,0.00,WUHU216HW,2013-08-18 06:41:00,
2013-08-18 01:46:00,65.5,60.6,30.01,NE,45,0.0,0.2,84,0.00,,,0.00,WUHU216HW,2013-08-18 06:46:00,
2013-08-18 01:51:00,65.3,60.4,30.01,NE,45,0.0,0.0,84,0.00,,,0.00,WUHU216HW,2013-08-18 06:51:00,
2013-08-18 01:56:00,65.2,60.2,30.01,NE,45,0.0,0.0,84,0.00,,,0.00,WUHU216HW,2013-08-18 06:56:00,
2013-08-18 02:01:00,65.0,60.0,30.01,NE,45,0.0,0.0,84,0.00,,,0.00,WUHU216HW,2013-08-18 07:01:00,
2013-08-18 02:06:00,64.8,59.9,30.01,NE,45,0.0,0.0,84,0.00,,,0.00,WUHU216HW,2013-08-18 07:06:00,
2013-08-18 02:11:00,64.6,59.3,30.01,NE,45,0.0,0.0,83,0.00,,,0.00,WUHU216HW,2013-08-18 07:11:00,
2013-08-18 02:16:00,64.4,59.1,30.01,NE,45,0.0,0.0,83,0.00,,,0.00,WUHU216HW,2013-08-18 07:16:00,
2013-08-18 02:21:00,64.4,59.5,30.01,NE,45,0.0,0.0,84,0.00,,,0.00,WUHU216HW,2013-08-18 07:21:00,
2013-08-18 02:26:00,64.3,59.3,30.01,NE,45,0.0,0.0,84,0.00,,,0.00,WUHU216HW,2013-08-18 07:26:00,
2013-08-18 02:31:00,64.3,59.3,30.01,NE,45,0.0,0.0,84,0.00,,,0.00,WUHU216HW,2013-08-18 07:31:00,
2013-08-18 02:36:00,64.3,59.3,30.01,ESE,113,0.2,0.4,84,0.00,,,0.00,WUHU216HW,2013-08-18 07:36:00,
2013-08-18 02:41:00,64.3,59.7,30.01,ESE,113,0.3,0.7,85,0.00,,,0.00,WUHU216HW,2013-08-18 07:41:00,
2013-08-18 02:46:00,64.4,59.9,30.01,ESE,108,0.4,0.7,85,0.00,,,0.00,WUHU216HW,2013-08-18 07:46:00,
2013-08-18 02:51:00,64.4,59.9,30.01,ESE,113,0.1,0.7,85,0.00,,,0.00,WUHU216HW,2013-08-18 07:51:00,
2013-08-18 02:56:00,64.4,59.9,30.01,ESE,113,0.3,0.4,85,0.00,,,0.00,WUHU216HW,2013-08-18 07:56:00,
2013-08-18 03:01:00,64.4,59.9,30.01,ESE,113,0.5,0.9,85,0.00,,,0.00,WUHU216HW,2013-08-18 08:01:00,
2013-08-18 03:05:00,64.6,60.0,30.01,SE,135,0.4,0.9,85,0.00,,,0.00,WUHU216HW,2013-08-18 08:05:00,
2013-08-18 03:10:00,64.6,60.0,30.01,SE,135,1.3,1.8,85,0.00,,,0.00,WUHU216HW,2013-08-18 08:10:00,
2013-08-18 03:15:00,64.6,60.0,30.01,SE,135,0.7,1.8,85,0.00,,,0.00,WUHU216HW,2013-08-18 08:15:00,
2013-08-18 03:20:00,64.6,60.0,30.01,SE,132,0.7,1.1,85,0.00,,,0.00,WUHU216HW,2013-08-18 08:20:00,
2013-08-18 03:25:00,64.6,60.0,30.01,ESE,113,0.4,1.3,85,0.00,,,0.00,WUHU216HW,2013-08-18 08:25:00,
2013-08-18 03:30:00,64.4,59.9,30.01,ESE,113,0.7,1.3,85,0.00,,,0.00,WUHU216HW,2013-08-18 08:30:00,
2013-08-18 03:35:00,64.4,59.9,30.01,ESE,113,1.1,1.1,85,0.00,,,0.00,WUHU216HW,2013-08-18 08:35:00,
2013-08-18 03:40:00,64.4,59.9,30.01,ESE,113,0.4,1.1,85,0.00,,,0.00,WUHU216HW,2013-08-18 08:40:00,
2013-08-18 03:45:00,64.4,59.9,30.01,ESE,113,0.4,0.7,85,0.00,,,0.00,WUHU216HW,2013-08-18 08:45:00,
2013-08-18 03:50:00,64.3,59.7,30.01,ESE,113,0.1,0.4,85,0.00,,,0.00,WUHU216HW,2013-08-18 08:50:00,
2013-08-18 03:55:00,64.1,59.5,30.01,ESE,113,0.0,0.4,85,0.00,,,0.00,WUHU216HW,2013-08-18 08:55:00,
2013-08-18 04:00:00,64.1,59.5,30.01,ESE,113,0.0,0.4,85,0.00,,,0.00,WUHU216HW,2013-08-18 09:00:00,
2013-08-18 04:05:00,63.9,59.3,30.01,ESE,113,0.0,0.0,85,0.00,,,0.00,WUHU216HW,2013-08-18 09:05:00,
2013-08-18 04:10:00,63.9,59.3,30.01,ESE,113,0.0,0.2,85,0.00,,,0.00,WUHU216HW,2013-08-18 09:10:00,
2013-08-18 04:15:00,63.9,59.3,30.01,ESE,113,0.0,0.2,85,0.00,,,0.00,WUHU216HW,2013-08-18 09:15:00,
2013-08-18 04:20:00,63.7,59.1,30.01,ESE,113,0.4,0.4,85,0.00,,,0.00,WUHU216HW,2013-08-18 09:20:00,
2013-08-18 04:25:00,63.7,59.1,30.01,ESE,113,0.1,0.4,85,0.00,,,0.00,WUHU216HW,2013-08-18 09:25:00,
2013-08-18 04:30:00,63.7,59.1,30.01,SE,135,0.0,0.4,85,0.00,,,0.00,WUHU216HW,2013-08-18 09:30:00,
2013-08-18 04:35:00,63.7,59.1,30.01,SE,135,0.0,0.0,85,0.00,,,0.00,WUHU216HW,2013-08-18 09:35:00,
2013-08-18 04:40:00,63.5,59.0,30.01,SE,135,0.0,0.0,85,0.00,,,0.00,WUHU216HW,2013-08-18 09:40:00,
2013-08-18 04:45:00,63.4,58.8,30.01,SE,135,0.0,0.0,85,0.00,,,0.00,WUHU216HW,2013-08-18 09:45:00,
2013-08-18 04:50:00,63.2,59.0,30.01,SE,135,0.0,0.0,86,0.00,,,0.00,WUHU216HW,2013-08-18 09:50:00,
2013-08-18 04:55:00,63.0,58.8,30.01,SE,135,0.0,0.0,86,0.00,,,0.00,WUHU216HW,2013-08-18 09:55:00,
2013-08-18 05:00:00,63.0,58.8,30.01,SE,135,0.0,0.0,86,0.00,,,0.00,WUHU216HW,2013-08-18 10:00:00,
2013-08-18 05:05:00,62.8,58.6,30.01,SE,135,0.0,0.0,86,0.00,,,0.00,WUHU216HW,2013-08-18 10:05:00,
2013-08-18 05:10:00,62.6,58.4,30.01,SE,135,0.0,0.0,86,0.00,,,0.00,WUHU216HW,2013-08-18 10:10:00,
2013-08-18 05:15:00,62.6,58.4,30.01,SE,135,0.0,0.0,86,0.00,,,0.00,WUHU216HW,2013-08-18 10:15:00,
2013-08-18 05:20:00,62.5,58.6,30.02,SE,135,0.0,0.0,87,0.00,,,0.00,WUHU216HW,2013-08-18 10:20:00,
2013-08-18 05:25:00,62.3,58.4,30.02,SE,135,0.0,0.0,87,0.00,,,0.00,WUHU216HW,2013-08-18 10:25:00,
2013-08-18 05:30:00,62.3,58.4,30.02,SE,135,0.0,0.0,87,0.00,,,0.00,WUHU216HW,2013-08-18 10:30:00,
2013-08-18 05:35:00,62.3,58.4,30.02,SE,135,0.0,0.0,87,0.00,,,0.00,WUHU216HW,2013-08-18 10:35:00,
2013-08-18 05:40:00,62.1,58.2,30.02,SE,135,0.0,0.0,87,0.00,,,0.00,WUHU216HW,2013-08-18 10:40:00,
2013-08-18 05:45:00,62.1,58.2,30.02,SE,135,0.0,0.0,87,0.00,,,0.00,WUHU216HW,2013-08-18 10:45:00,
2013-08-18 05:50:00,61.9,58.1,30.02,SE,135,0.0,0.0,87,0.00,,,0.00,WUHU216HW,2013-08-18 10:50:00,
2013-08-18 05:55:00,61.9,58.1,30.02,SE,135,0.0,0.0,87,0.00,,,0.00,WUHU216HW,2013-08-18 10:55:00,
2013-08-18 06:00:00,61.7,57.9,30.02,SE,135,0.0,0.0,87,0.00,,,0.00,WUHU216HW,2013-08-18 11:00:00,
2013-08-18 06:05:00,61.6,57.7,30.03,SE,135,0.0,0.0,87,0.00,,,0.00,WUHU216HW,2013-08-18 11:05:00,
2013-08-18 06:10:00,61.6,57.7,30.02,SE,135,0.0,0.0,87,0.00,,,0.00,WUHU216HW,2013-08-18 11:10:00,
2013-08-18 06:15:00,61.6,57.7,30.02,SE,135,0.0,0.0,87,0.00,,,0.00,WUHU216HW,2013-08-18 11:15:00,
2013-08-18 06:20:00,61.4,57.5,30.03,SE,135,0.0,0.0,87,0.00,,,0.00,WUHU216HW,2013-08-18 11:20:00,
2013-08-18 06:25:00,61.2,57.3,30.03,SE,135,0.0,0.0,87,0.00,,,0.00,WUHU216HW,2013-08-18 11:25:00,
2013-08-18 06:30:00,61.2,57.3,30.03,SE,135,0.0,0.0,87,0.00,,,0.00,WUHU216HW,2013-08-18 11:30:00,
2013-08-18 06:35:00,61.2,57.3,30.03,SE,135,0.0,0.0,87,0.00,,,0.00,WUHU216HW,2013-08-18 11:35:00,
2013-08-18 06:40:00,61.2,57.3,30.03,SE,135,0.0,0.0,87,0.00,,,0.00,WUHU216HW,2013-08-18 11:40:00,
2013-08-18 06:45:00,61.2,57.7,30.03,SE,135,0.0,0.0,88,0.00,,,0.00,WUHU216HW,2013-08-18 11:45:00,
2013-08-18 06:50:00,61.2,57.7,30.03,SE,135,0.0,0.0,88,0.00,,,0.00,WUHU216HW,2013-08-18 11:50:00,
2013-08-18 06:55:00,61.2,57.7,30.03,SE,135,0.0,0.0,88,0.00,,,0.00,WUHU216HW,2013-08-18 11:55:00,
2013-08-18 07:00:00,61.2,57.7,30.03,SE,135,0.0,0.0,88,0.00,,,0.00,WUHU216HW,2013-08-18 12:00:00,
2013-08-18 07:05:00,61.2,57.7,30.03,ESE,113,0.0,0.0,88,0.00,,,0.00,WUHU216HW,2013-08-18 12:05:00,
2013-08-18 07:10:00,61.2,57.7,30.03,ESE,113,0.0,0.0,88,0.00,,,0.00,WUHU216HW,2013-08-18 12:10:00,
2013-08-18 07:15:00,61.2,57.7,30.03,ESE,113,0.0,0.0,88,0.00,,,0.00,WUHU216HW,2013-08-18 12:15:00,
2013-08-18 07:20:00,61.2,57.7,30.04,ESE,113,0.0,0.0,88,0.00,,,0.00,WUHU216HW,2013-08-18 12:20:00,
2013-08-18 07:25:00,61.4,57.9,30.04,ESE,113,0.0,0.0,88,0.00,,,0.00,WUHU216HW,2013-08-18 12:25:00,
2013-08-18 07:30:00,61.6,58.3,30.04,ESE,113,0.4,0.4,89,0.00,,,0.00,WUHU216HW,2013-08-18 12:30:00,
2013-08-18 07:35:00,61.7,58.5,30.04,ESE,113,1.1,1.1,89,0.00,,,0.00,WUHU216HW,2013-08-18 12:35:00,
2013-08-18 07:40:00,62.1,58.9,30.04,SE,135,0.7,1.1,89,0.00,,,0.00,WUHU216HW,2013-08-18 12:40:00,
2013-08-18 07:45:00,62.5,59.2,30.04,SE,135,0.4,1.8,89,0.00,,,0.00,WUHU216HW,2013-08-18 12:45:00,
2013-08-18 07:50:00,63.0,60.1,30.04,East,90,0.2,1.8,90,0.00,,,0.00,WUHU216HW,2013-08-18 12:50:00,
2013-08-18 07:55:00,63.4,60.5,30.04,ESE,113,1.6,1.6,90,0.00,,,0.00,WUHU216HW,2013-08-18 12:55:00,
2013-08-18 08:00:00,63.7,60.5,30.04,ESE,113,0.7,1.6,89,0.00,,,0.00,WUHU216HW,2013-08-18 13:00:00,
2013-08-18 08:05:00,64.1,60.8,30.04,ESE,113,0.0,1.1,89,0.00,,,0.00,WUHU216HW,2013-08-18 13:05:00,
2013-08-18 08:10:00,64.4,61.2,30.05,ESE,113,0.8,1.1,89,0.00,,,0.00,WUHU216HW,2013-08-18 13:10:00,
2013-08-18 08:15:00,65.2,61.8,30.05,SE,133,1.2,2.2,89,0.00,,,0.00,WUHU216HW,2013-08-18 13:15:00,
2013-08-18 08:20:00,65.7,62.4,30.05,SE,135,1.1,2.2,89,0.00,,,0.00,WUHU216HW,2013-08-18 13:20:00,
2013-08-18 08:25:00,66.2,62.8,30.05,East,90,0.6,2.0,89,0.00,,,0.00,WUHU216HW,2013-08-18 13:25:00,
2013-08-18 08:30:00,66.8,63.1,30.05,ESE,113,2.2,2.2,88,0.00,,,0.00,WUHU216HW,2013-08-18 13:30:00,
2013-08-18 08:35:00,67.3,63.6,30.05,ESE,113,2.2,2.7,88,0.00,,,0.00,WUHU216HW,2013-08-18 13:35:00,
2013-08-18 08:40:00,67.5,63.8,30.05,ESE,113,0.9,2.7,88,0.00,,,0.00,WUHU216HW,2013-08-18 13:40:00,
2013-08-18 08:45:00,68.0,64.0,30.05,East,90,0.7,1.3,87,0.00,,,0.00,WUHU216HW,2013-08-18 13:45:00,
2013-08-18 08:50:00,68.4,64.4,30.06,East,90,0.0,1.1,87,0.00,,,0.00,WUHU216HW,2013-08-18 13:50:00,
2013-08-18 08:55:00,68.9,64.5,30.06,ESE,113,1.4,2.0,86,0.00,,,0.00,WUHU216HW,2013-08-18 13:55:00,
2013-08-18 09:00:00,69.5,64.7,30.06,ESE,113,0.4,2.0,85,0.00,,,0.00,WUHU216HW,2013-08-18 14:00:00,
2013-08-18 09:05:00,70.0,65.3,30.05,ESE,113,1.1,1.8,85,0.00,,,0.00,WUHU216HW,2013-08-18 14:05:00,
2013-08-18 09:10:00,70.4,65.3,30.05,ESE,113,1.8,1.8,84,0.00,,,0.00,WUHU216HW,2013-08-18 14:10:00,
2013-08-18 09:15:00,70.9,65.2,30.06,ESE,113,1.1,1.8,82,0.00,,,0.00,WUHU216HW,2013-08-18 14:15:00,
2013-08-18 09:20:00,71.1,65.4,30.06,ESE,113,0.2,2.5,82,0.00,,,0.00,WUHU216HW,2013-08-18 14:20:00,
2013-08-18 09:25:00,71.6,65.9,30.06,ENE,68,0.3,2.5,82,0.00,,,0.00,WUHU216HW,2013-08-18 14:25:00,
2013-08-18 09:30:00,72.0,65.9,30.06,ESE,113,0.7,2.2,81,0.00,,,0.00,WUHU216HW,2013-08-18 14:30:00,
2013-08-18 09:35:00,72.4,65.9,30.06,SE,135,0.8,2.0,80,0.00,,,0.00,WUHU216HW,2013-08-18 14:35:00,
2013-08-18 09:40:00,72.7,66.2,30.06,SE,135,0.7,2.0,80,0.00,,,0.00,WUHU216HW,2013-08-18 14:40:00,
2013-08-18 09:45:00,72.9,66.8,30.06,NNE,23,0.7,1.1,81,0.00,,,0.00,WUHU216HW,2013-08-18 14:45:00,
2013-08-18 09:50:00,73.1,67.0,30.06,ENE,68,0.9,1.1,81,0.00,,,0.00,WUHU216HW,2013-08-18 14:50:00,
2013-08-18 09:55:00,73.6,66.8,30.06,North,0,1.5,2.0,79,0.00,,,0.00,WUHU216HW,2013-08-18 14:55:00,
2013-08-18 10:00:00,73.8,67.0,30.06,NNW,338,1.3,2.0,79,0.00,,,0.00,WUHU216HW,2013-08-18 15:00:00,
2013-08-18 10:05:00,73.8,66.6,30.06,North,0,3.1,3.1,78,0.00,,,0.00,WUHU216HW,2013-08-18 15:05:00,
2013-08-18 10:10:00,74.2,65.8,30.05,NNW,338,2.5,3.1,75,0.00,,,0.00,WUHU216HW,2013-08-18 15:10:00,
2013-08-18 10:15:00,74.0,66.0,30.06,North,0,1.1,2.5,76,0.00,,,0.00,WUHU216HW,2013-08-18 15:15:00,
2013-08-18 10:20:00,74.7,66.7,30.05,ESE,113,1.6,2.9,76,0.00,,,0.00,WUHU216HW,2013-08-18 15:20:00,
2013-08-18 10:25:00,75.2,67.1,30.06,ENE,68,1.1,2.9,76,0.00,,,0.00,WUHU216HW,2013-08-18 15:25:00,
2013-08-18 10:30:00,75.8,66.9,30.06,NNE,23,0.8,1.1,74,0.00,,,0.00,WUHU216HW,2013-08-18 15:30:00,
2013-08-18 10:35:00,76.0,67.1,30.05,SW,225,0.4,1.8,74,0.00,,,0.00,WUHU216HW,2013-08-18 15:35:00,
2013-08-18 10:40:00,76.1,66.9,30.06,West,270,0.6,1.8,73,0.00,,,0.00,WUHU216HW,2013-08-18 15:40:00,
2013-08-18 10:45:00,76.3,66.2,30.05,West,264,0.8,2.7,71,0.00,,,0.00,WUHU216HW,2013-08-18 15:45:00,
2013-08-18 10:50:00,76.5,66.9,30.05,NNE,23,0.4,2.7,72,0.00,,,0.00,WUHU216HW,2013-08-18 15:50:00,
2013-08-18 10:55:00,76.5,66.9,30.05,North,0,2.5,2.5,72,0.00,,,0.00,WUHU216HW,2013-08-18 15:55:00,
2013-08-18 11:00:00,76.7,65.3,30.05,ESE,113,1.8,2.5,68,0.00,,,0.00,WUHU216HW,2013-08-18 16:00:00,
2013-08-18 11:05:00,76.9,66.4,30.05,NNE,33,1.2,1.8,70,0.00,,,0.00,WUHU216HW,2013-08-18 16:05:00,
2013-08-18 11:10:00,77.0,66.2,30.05,ESE,121,0.6,1.8,69,0.00,,,0.00,WUHU216HW,2013-08-18 16:10:00,
2013-08-18 11:15:00,77.4,66.5,30.05,ENE,68,1.6,2.5,69,0.00,,,0.00,WUHU216HW,2013-08-18 16:15:00,
2013-08-18 11:20:00,77.8,65.9,30.05,SE,135,2.5,2.5,67,0.00,,,0.00,WUHU216HW,2013-08-18 16:20:00,
2013-08-18 11:25:00,78.5,66.2,30.05,SSE,158,1.8,2.5,66,0.00,,,0.00,WUHU216HW,2013-08-18 16:25:00,
2013-08-18 11:30:00,78.7,65.9,30.05,SE,135,2.0,5.6,65,0.00,,,0.00,WUHU216HW,2013-08-18 16:30:00,
2013-08-18 11:35:00,78.7,66.3,30.05,North,0,1.1,5.6,66,0.00,,,0.00,WUHU216HW,2013-08-18 16:35:00,
2013-08-18 11:40:00,79.0,66.7,30.05,ENE,66,0.6,3.6,66,0.00,,,0.00,WUHU216HW,2013-08-18 16:40:00,
2013-08-18 11:45:00,79.6,66.8,30.05,ENE,68,0.8,1.3,65,0.00,,,0.00,WUHU216HW,2013-08-18 16:45:00,
2013-08-18 11:50:00,79.9,66.6,30.05,North,11,1.2,2.0,64,0.00,,,0.00,WUHU216HW,2013-08-18 16:50:00,
2013-08-18 11:55:00,80.3,66.1,30.05,SE,125,2.7,3.4,62,0.00,,,0.00,WUHU216HW,2013-08-18 16:55:00,
2013-08-18 12:00:00,79.9,65.4,30.05,ENE,58,2.0,4.0,61,0.00,,,0.00,WUHU216HW,2013-08-18 17:00:00,
2013-08-18 12:05:00,79.9,65.8,30.04,ESE,113,1.1,4.0,62,0.00,,,0.00,WUHU216HW,2013-08-18 17:05:00,
2013-08-18 12:10:00,80.1,65.5,30.04,SE,135,1.8,2.2,61,0.00,,,0.00,WUHU216HW,2013-08-18 17:10:00,
2013-08-18 12:15:00,80.3,65.2,30.04,ENE,62,0.8,2.2,60,0.00,,,0.00,WUHU216HW,2013-08-18 17:15:00,
2013-08-18 12:20:00,79.9,63.8,30.04,SE,139,2.2,2.5,58,0.00,,,0.00,WUHU216HW,2013-08-18 17:20:00,
2013-08-18 12:25:00,79.9,65.4,30.04,North,0,1.5,2.5,61,0.00,,,0.00,WUHU216HW,2013-08-18 17:25:00,
2013-08-18 12:30:00,79.7,64.7,30.04,ESE,113,1.0,4.5,60,0.00,,,0.00,WUHU216HW,2013-08-18 17:30:00,
2013-08-18 12:35:00,79.6,65.0,30.04,NE,36,1.8,4.5,61,0.00,,,0.00,WUHU216HW,2013-08-18 17:35:00,
2013-08-18 12:40:00,79.7,64.7,30.04,SE,135,2.0,2.7,60,0.00,,,0.00,WUHU216HW,2013-08-18 17:40:00,
2013-08-18 12:45:00,80.3,64.2,30.04,NNE,23,2.2,2.7,58,0.00,,,0.00,WUHU216HW,2013-08-18 17:45:00,
2013-08-18 12:50:00,79.9,63.8,30.04,NNE,16,2.0,4.7,58,0.00,,,0.00,WUHU216HW,2013-08-18 17:50:00,
2013-08-18 12:55:00,79.6,64.0,30.04,North,0,2.9,4.7,59,0.00,,,0.00,WUHU216HW,2013-08-18 17:55:00,
2013-08-18 13:00:00,79.2,63.2,30.04,NNE,23,4.0,4.0,58,0.00,,,0.00,WUHU216HW,2013-08-18 18:00:00,
2013-08-18 13:05:00,78.8,63.9,30.03,North,0,1.5,5.4,60,0.00,,,0.00,WUHU216HW,2013-08-18 18:05:00,
2013-08-18 13:10:00,79.0,63.5,30.03,North,0,1.6,5.4,59,0.00,,,0.00,WUHU216HW,2013-08-18 18:10:00,
2013-08-18 13:15:00,79.0,63.5,30.03,North,0,4.3,4.3,59,0.00,,,0.00,WUHU216HW,2013-08-18 18:15:00,
2013-08-18 13:20:00,78.8,64.4,30.03,NNE,23,2.2,4.3,61,0.00,,,0.00,WUHU216HW,2013-08-18 18:20:00,
2013-08-18 13:25:00,78.5,64.0,30.03,SE,135,2.7,2.7,61,0.00,,,0.00,WUHU216HW,2013-08-18 18:25:00,
2013-08-18 13:30:00,78.8,64.8,30.03,East,90,0.2,2.7,62,0.00,,,0.00,WUHU216HW,2013-08-18 18:30:00,
2013-08-18 13:35:00,79.4,64.4,30.03,ESE,122,3.5,4.0,60,0.00,,,0.00,WUHU216HW,2013-08-18 18:35:00,
2013-08-18 13:40:00,79.9,64.9,30.02,SE,135,2.5,4.0,60,0.00,,,0.00,WUHU216HW,2013-08-18 18:40:00,
2013-08-18 13:45:00,80.5,64.4,30.02,NNE,31,1.9,2.5,58,0.00,,,0.00,WUHU216HW,2013-08-18 18:45:00,
2013-08-18 13:50:00,79.9,63.8,30.02,East,89,0.6,3.1,58,0.00,,,0.00,WUHU216HW,2013-08-18 18:50:00,
2013-08-18 13:55:00,79.7,64.7,30.02,North,350,1.5,3.1,60,0.00,,,0.00,WUHU216HW,2013-08-18 18:55:00,
2013-08-18 14:00:00,79.9,64.9,30.02,SE,135,0.3,3.1,60,0.00,,,0.00,WUHU216HW,2013-08-18 19:00:00,
2013-08-18 14:05:00,80.3,64.7,30.02,NNW,338,1.8,3.1,59,0.00,,,0.00,WUHU216HW,2013-08-18 19:05:00,
2013-08-18 14:10:00,80.3,65.2,30.02,ESE,113,0.9,2.5,60,0.00,,,0.00,WUHU216HW,2013-08-18 19:10:00,
2013-08-18 14:15:00,80.6,65.0,30.01,North,0,2.3,2.5,59,0.00,,,0.00,WUHU216HW,2013-08-18 19:15:00,
2013-08-18 14:20:00,80.6,65.5,30.01,NNE,23,1.6,2.5,60,0.00,,,0.00,WUHU216HW,2013-08-18 19:20:00,
2013-08-18 14:25:00,80.1,64.5,30.01,SE,135,2.5,2.5,59,0.00,,,0.00,WUHU216HW,2013-08-18 19:25:00,
2013-08-18 14:30:00,80.1,65.5,30.01,SE,135,1.6,2.5,61,0.00,,,0.00,WUHU216HW,2013-08-18 19:30:00,
2013-08-18 14:35:00,80.6,66.0,30.01,NE,36,1.5,1.8,61,0.00,,,0.00,WUHU216HW,2013-08-18 19:35:00,
2013-08-18 14:40:00,80.6,65.0,30.01,ESE,120,1.7,2.2,59,0.00,,,0.00,WUHU216HW,2013-08-18 19:40:00,
2013-08-18 14:45:00,79.9,64.4,30.01,SE,135,1.3,2.2,59,0.00,,,0.00,WUHU216HW,2013-08-18 19:45:00,
2013-08-18 14:50:00,79.6,64.5,30.01,ESE,123,0.8,2.2,60,0.00,,,0.00,WUHU216HW,2013-08-18 19:50:00,
2013-08-18 14:55:00,79.2,64.3,30.00,North,0,2.2,2.2,60,0.00,,,0.00,WUHU216HW,2013-08-18 19:55:00,
2013-08-18 15:00:00,79.2,65.1,30.00,ESE,113,2.7,2.7,62,0.00,,,0.00,WUHU216HW,2013-08-18 20:00:00,
2013-08-18 15:05:00,80.1,65.5,30.00,SSE,158,1.8,2.7,61,0.00,,,0.00,WUHU216HW,2013-08-18 20:05:00,
2013-08-18 15:10:00,80.8,65.2,30.00,ESE,121,2.0,3.1,59,0.00,,,0.00,WUHU216HW,2013-08-18 20:10:00,
2013-08-18 15:15:00,81.0,65.9,30.00,East,101,1.0,3.1,60,0.00,,,0.00,WUHU216HW,2013-08-18 20:15:00,
2013-08-18 15:20:00,80.5,65.3,30.00,SE,129,1.9,2.9,60,0.00,,,0.00,WUHU216HW,2013-08-18 20:20:00,
2013-08-18 15:25:00,79.9,65.4,30.00,ESE,113,1.5,3.8,61,0.00,,,0.00,WUHU216HW,2013-08-18 20:25:00,
2013-08-18 15:30:00,79.6,65.0,29.99,SSE,147,0.8,3.8,61,0.00,,,0.00,WUHU216HW,2013-08-18 20:30:00,
2013-08-18 15:35:00,79.4,65.3,30.00,SE,135,1.1,1.8,62,0.00,,,0.00,WUHU216HW,2013-08-18 20:35:00,
2013-08-18 15:40:00,79.6,65.4,29.99,SW,225,2.0,2.0,62,0.00,,,0.00,WUHU216HW,2013-08-18 20:40:00,
2013-08-18 15:45:00,79.2,64.6,29.99,ESE,113,1.3,2.0,61,0.00,,,0.00,WUHU216HW,2013-08-18 20:45:00,
2013-08-18 15:50:00,79.2,65.1,29.99,NNW,338,0.8,1.8,62,0.00,,,0.00,WUHU216HW,2013-08-18 20:50:00,
2013-08-18 15:55:00,79.6,65.9,29.99,South,174,0.8,1.8,63,0.00,,,0.00,WUHU216HW,2013-08-18 20:55:00,
2013-08-18 16:00:00,80.3,66.5,29.99,East,90,1.8,2.0,63,0.00,,,0.00,WUHU216HW,2013-08-18 21:00:00,
2013-08-18 16:05:00,81.0,67.2,29.99,WSW,248,0.7,2.0,63,0.00,,,0.00,WUHU216HW,2013-08-18 21:05:00,
2013-08-18 16:10:00,81.2,65.5,29.98,SW,225,1.7,2.5,59,0.00,,,0.00,WUHU216HW,2013-08-18 21:10:00,
2013-08-18 16:15:00,81.4,66.2,29.99,ESE,113,1.1,2.5,60,0.00,,,0.00,WUHU216HW,2013-08-18 21:15:00,
2013-08-18 16:20:00,81.5,65.8,29.99,SE,135,1.1,2.5,59,0.00,,,0.00,WUHU216HW,2013-08-18 21:20:00,
2013-08-18 16:25:00,81.5,66.3,29.98,NNE,20,2.0,2.2,60,0.00,,,0.00,WUHU216HW,2013-08-18 21:25:00,
2013-08-18 16:30:00,81.5,65.3,29.98,East,92,1.0,2.2,58,0.00,,,0.00,WUHU216HW,2013-08-18 21:30:00,
2013-08-18 16:35:00,81.2,65.0,29.98,NW,315,0.7,2.9,58,0.00,,,0.00,WUHU216HW,2013-08-18 21:35:00,
2013-08-18 16:40:00,80.8,65.7,29.98,ESE,113,2.2,2.9,60,0.00,,,0.00,WUHU216HW,2013-08-18 21:40:00,
2013-08-18 16:45:00,80.3,65.2,29.98,ESE,113,0.3,2.2,60,0.00,,,0.00,WUHU216HW,2013-08-18 21:45:00,
2013-08-18 16:50:00,79.9,64.9,29.98,ESE,107,0.8,1.8,60,0.00,,,0.00,WUHU216HW,2013-08-18 21:50:00,
2013-08-18 16:55:00,79.7,65.2,29.98,ESE,113,1.1,1.8,61,0.00,,,0.00,WUHU216HW,2013-08-18 21:55:00,
2013-08-18 17:00:00,79.4,65.3,29.98,ESE,113,1.3,1.8,62,0.00,,,0.00,WUHU216HW,2013-08-18 22:00:00,
2013-08-18 17:05:00,79.2,65.1,29.98,ESE,113,0.6,1.8,62,0.00,,,0.00,WUHU216HW,2013-08-18 22:05:00,
2013-08-18 17:10:00,78.8,64.8,29.98,ESE,113,0.4,1.8,62,0.00,,,0.00,WUHU216HW,2013-08-18 22:10:00,
2013-08-18 17:15:00,78.8,64.8,29.98,ESE,113,1.6,1.6,62,0.00,,,0.00,WUHU216HW,2013-08-18 22:15:00,
2013-08-18 17:20:00,78.8,65.2,29.98,SSW,203,0.8,1.6,63,0.00,,,0.00,WUHU216HW,2013-08-18 22:20:00,
2013-08-18 17:25:00,79.6,64.0,29.98,SW,225,3.0,3.1,59,0.00,,,0.00,WUHU216HW,2013-08-18 22:25:00,
2013-08-18 17:30:00,79.9,65.4,29.97,SW,225,1.1,3.1,61,0.00,,,0.00,WUHU216HW,2013-08-18 22:30:00,
2013-08-18 17:35:00,80.3,65.6,29.98,SW,225,0.8,2.5,61,0.00,,,0.00,WUHU216HW,2013-08-18 22:35:00,
2013-08-18 17:40:00,80.6,65.0,29.98,ESE,113,1.8,2.2,59,0.00,,,0.00,WUHU216HW,2013-08-18 22:40:00,
2013-08-18 17:45:00,80.5,65.3,29.98,ESE,113,0.6,2.2,60,0.00,,,0.00,WUHU216HW,2013-08-18 22:45:00,
2013-08-18 17:50:00,80.3,65.6,29.97,ESE,113,1.1,1.3,61,0.00,,,0.00,WUHU216HW,2013-08-18 22:50:00,
2013-08-18 17:55:00,80.3,65.6,29.97,ENE,76,0.6,1.3,61,0.00,,,0.00,WUHU216HW,2013-08-18 22:55:00,
2013-08-18 18:00:00,80.5,65.8,29.97,WSW,248,0.7,1.1,61,0.00,,,0.00,WUHU216HW,2013-08-18 23:00:00,
2013-08-18 18:05:00,80.6,65.5,29.97,SE,135,1.1,2.7,60,0.00,,,0.00,WUHU216HW,2013-08-18 23:05:00,
2013-08-18 18:10:00,80.6,65.5,29.97,ESE,113,0.2,2.7,60,0.00,,,0.00,WUHU216HW,2013-08-18 23:10:00,
2013-08-18 18:15:00,80.3,65.2,29.97,SE,135,1.3,1.8,60,0.00,,,0.00,WUHU216HW,2013-08-18 23:15:00,
2013-08-18 18:19:00,79.9,65.4,29.97,ESE,113,1.6,2.5,61,0.00,,,0.00,WUHU216HW,2013-08-18 23:19:00,
2013-08-18 18:24:00,79.6,65.0,29.97,SE,126,1.6,2.5,61,0.00,,,0.00,WUHU216HW,2013-08-18 23:24:00,
2013-08-18 18:30:00,79.2,64.6,29.97,ESE,113,0.4,2.0,61,0.00,,,0.00,WUHU216HW,2013-08-18 23:30:00,
2013-08-18 18:35:00,78.8,64.8,29.97,ESE,113,0.4,1.1,62,0.00,,,0.00,WUHU216HW,2013-08-18 23:35:00,
2013-08-18 18:40:00,78.7,64.6,29.97,ESE,113,0.8,1.1,62,0.00,,,0.00,WUHU216HW,2013-08-18 23:40:00,
2013-08-18 18:45:00,78.5,64.9,29.97,East,90,0.6,1.1,63,0.00,,,0.00,WUHU216HW,2013-08-18 23:45:00,
2013-08-18 18:50:00,78.1,64.5,29.97,East,90,0.0,0.7,63,0.00,,,0.00,WUHU216HW,2013-08-18 23:50:00,
2013-08-18 18:55:00,78.1,65.0,29.97,East,90,0.0,0.0,64,0.00,,,0.00,WUHU216HW,2013-08-18 23:55:00,
2013-08-18 19:00:00,77.8,65.1,29.97,East,90,0.0,0.0,65,0.00,,,0.00,WUHU216HW,2013-08-19 00:00:00,
2013-08-18 19:05:00,77.4,65.2,29.97,East,90,0.0,0.0,66,0.00,,,0.00,WUHU216HW,2013-08-19 00:05:00,
2013-08-18 19:10:00,77.0,65.3,29.97,East,90,0.0,0.0,67,0.00,,,0.00,WUHU216HW,2013-08-19 00:10:00,
2013-08-18 19:15:00,76.7,64.9,29.97,East,90,0.0,0.0,67,0.00,,,0.00,WUHU216HW,2013-08-19 00:15:00,
2013-08-18 19:20:00,76.3,65.0,29.97,East,90,0.0,0.0,68,0.00,,,0.00,WUHU216HW,2013-08-19 00:20:00,
2013-08-18 19:25:00,76.0,65.1,29.97,East,90,0.0,0.0,69,0.00,,,0.00,WUHU216HW,2013-08-19 00:25:00,
2013-08-18 19:30:00,75.6,64.7,29.97,East,90,0.0,0.0,69,0.00,,,0.00,WUHU216HW,2013-08-19 00:30:00,
2013-08-18 19:35:00,75.4,65.0,29.97,East,90,0.0,0.0,70,0.00,,,0.00,WUHU216HW,2013-08-19 00:35:00,
2013-08-18 19:40:00,75.2,64.8,29.98,East,90,0.0,0.0,70,0.00,,,0.00,WUHU216HW,2013-08-19 00:40:00,
2013-08-18 19:45:00,74.9,64.9,29.98,East,90,0.0,0.0,71,0.00,,,0.00,WUHU216HW,2013-08-19 00:45:00,
2013-08-18 19:50:00,74.7,64.7,29.98,East,90,0.0,0.0,71,0.00,,,0.00,WUHU216HW,2013-08-19 00:50:00,
2013-08-18 19:55:00,74.5,64.5,29.98,East,90,0.0,0.0,71,0.00,,,0.00,WUHU216HW,2013-08-19 00:55:00,
2013-08-18 20:00:00,74.2,64.2,29.98,East,90,0.0,0.0,71,0.00,,,0.00,WUHU216HW,2013-08-19 01:00:00,
2013-08-18 20:05:00,73.8,63.9,29.98,East,90,0.0,0.0,71,0.00,,,0.00,WUHU216HW,2013-08-19 01:05:00,
2013-08-18 20:10:00,73.6,64.1,29.98,East,90,0.0,0.0,72,0.00,,,0.00,WUHU216HW,2013-08-19 01:10:00,
2013-08-18 20:15:00,73.3,63.7,29.98,East,90,0.0,0.0,72,0.00,,,0.00,WUHU216HW,2013-08-19 01:15:00,
2013-08-18 20:20:00,73.1,64.0,29.98,East,90,0.0,0.0,73,0.00,,,0.00,WUHU216HW,2013-08-19 01:20:00,
2013-08-18 20:25:00,72.9,63.8,29.98,East,90,0.0,0.0,73,0.00,,,0.00,WUHU216HW,2013-08-19 01:25:00,
2013-08-18 20:30:00,72.7,64.0,29.98,East,90,0.0,0.0,74,0.00,,,0.00,WUHU216HW,2013-08-19 01:30:00,
2013-08-18 20:35:00,72.5,63.8,29.98,East,90,0.0,0.0,74,0.00,,,0.00,WUHU216HW,2013-08-19 01:35:00,
2013-08-18 20:40:00,72.4,63.6,29.98,East,90,0.0,0.0,74,0.00,,,0.00,WUHU216HW,2013-08-19 01:40:00,
2013-08-18 20:45:00,72.0,63.3,29.98,East,90,0.0,0.0,74,0.00,,,0.00,WUHU216HW,2013-08-19 01:45:00,
2013-08-18 20:50:00,71.8,63.1,29.98,East,90,0.0,0.0,74,0.00,,,0.00,WUHU216HW,2013-08-19 01:50:00,
2013-08-18 20:55:00,71.6,62.9,29.98,East,90,0.0,0.0,74,0.00,,,0.00,WUHU216HW,2013-08-19 01:55:00,
2013-08-18 21:00:00,71.5,62.7,29.98,East,90,0.0,0.0,74,0.00,,,0.00,WUHU216HW,2013-08-19 02:00:00,
2013-08-18 21:05:00,71.3,62.9,29.99,East,90,0.0,0.0,75,0.00,,,0.00,WUHU216HW,2013-08-19 02:05:00,
2013-08-18 21:10:00,71.1,62.7,29.99,East,90,0.0,0.0,75,0.00,,,0.00,WUHU216HW,2013-08-19 02:10:00,
2013-08-18 21:15:00,70.9,62.9,29.99,East,90,0.0,0.0,76,0.00,,,0.00,WUHU216HW,2013-08-19 02:15:00,
2013-08-18 21:20:00,70.7,62.7,29.99,East,90,0.0,0.0,76,0.00,,,0.00,WUHU216HW,2013-08-19 02:20:00,
2013-08-18 21:25:00,70.7,62.7,29.99,East,90,0.0,0.0,76,0.00,,,0.00,WUHU216HW,2013-08-19 02:25:00,
2013-08-18 21:30:00,70.6,62.9,30.00,East,90,0.0,0.0,77,0.00,,,0.00,WUHU216HW,2013-08-19 02:30:00,
2013-08-18 21:35:00,70.4,62.7,30.00,East,90,0.0,0.0,77,0.00,,,0.00,WUHU216HW,2013-08-19 02:35:00,
2013-08-18 21:40:00,70.2,62.6,30.00,East,90,0.0,0.0,77,0.00,,,0.00,WUHU216HW,2013-08-19 02:40:00,
2013-08-18 21:45:00,70.2,62.6,30.00,East,90,0.0,0.0,77,0.00,,,0.00,WUHU216HW,2013-08-19 02:45:00,
2013-08-18 21:50:00,70.0,62.4,30.00,SSE,158,0.0,0.0,77,0.00,,,0.00,WUHU216HW,2013-08-19 02:50:00,
2013-08-18 21:55:00,69.8,62.7,30.00,SSE,158,0.0,0.0,78,0.00,,,0.00,WUHU216HW,2013-08-19 02:55:00,
2013-08-18 22:00:00,70.0,62.8,30.00,SSE,158,0.0,0.0,78,0.00,,,0.00,WUHU216HW,2013-08-19 03:00:00,
2013-08-18 22:05:00,69.8,62.7,30.00,ESE,113,0.2,0.4,78,0.00,,,0.00,WUHU216HW,2013-08-19 03:05:00,
2013-08-18 22:10:00,69.8,62.7,30.00,ESE,113,0.0,0.4,78,0.00,,,0.00,WUHU216HW,2013-08-19 03:10:00,
2013-08-18 22:15:00,69.8,62.7,30.00,ESE,113,0.0,0.0,78,0.00,,,0.00,WUHU216HW,2013-08-19 03:15:00,
2013-08-18 22:20:00,69.8,62.7,30.00,ESE,113,0.0,0.0,78,0.00,,,0.00,WUHU216HW,2013-08-19 03:20:00,
2013-08-18 22:25:00,69.8,63.0,30.00,ESE,113,0.0,0.0,79,0.00,,,0.00,WUHU216HW,2013-08-19 03:25:00,
2013-08-18 22:30:00,69.7,62.8,30.00,ESE,113,0.0,0.0,79,0.00,,,0.00,WUHU216HW,2013-08-19 03:30:00,
2013-08-18 22:35:00,69.5,62.6,30.00,ESE,113,0.0,0.0,79,0.00,,,0.00,WUHU216HW,2013-08-19 03:35:00,
2013-08-18 22:40:00,69.5,62.6,30.00,ESE,113,0.0,0.0,79,0.00,,,0.00,WUHU216HW,2013-08-19 03:40:00,
2013-08-18 22:45:00,69.5,63.0,30.00,ESE,113,0.0,0.0,80,0.00,,,0.00,WUHU216HW,2013-08-19 03:45:00,
2013-08-18 22:50:00,69.3,62.9,30.00,SE,135,0.0,0.0,80,0.00,,,0.00,WUHU216HW,2013-08-19 03:50:00,
2013-08-18 22:55:00,69.1,62.7,30.00,East,90,0.4,0.4,80,0.00,,,0.00,WUHU216HW,2013-08-19 03:55:00,
2013-08-18 23:00:00,69.1,62.7,30.00,East,90,0.0,0.4,80,0.00,,,0.00,WUHU216HW,2013-08-19 04:00:00,
2013-08-18 23:01:00,69.1,62.7,30.00,East,90,0.0,0.4,80,0.00,,,0.00,WUHU216HW,2013-08-19 04:01:00,
2013-08-18 23:06:00,69.1,62.7,30.00,East,90,0.0,0.0,80,0.00,,,0.00,WUHU216HW,2013-08-19 04:06:00,
2013-08-18 23:11:00,68.9,62.6,30.00,East,90,0.1,0.2,80,0.00,,,0.00,WUHU216HW,2013-08-19 04:11:00,
2013-08-18 23:16:00,68.8,62.4,30.00,East,90,0.0,0.2,80,0.00,,,0.00,WUHU216HW,2013-08-19 04:16:00,
2013-08-18 23:21:00,68.6,62.6,30.00,East,90,0.0,0.0,81,0.00,,,0.00,WUHU216HW,2013-08-19 04:21:00,
2013-08-18 23:26:00,68.6,62.6,30.00,East,90,0.0,0.0,81,0.00,,,0.00,WUHU216HW,2013-08-19 04:26:00,
2013-08-18 23:31:00,68.4,62.4,30.01,East,90,0.0,0.0,81,0.00,,,0.00,WUHU216HW,2013-08-19 04:31:00,
2013-08-18 23:36:00,68.4,62.4,30.01,East,90,0.0,0.0,81,0.00,,,0.00,WUHU216HW,2013-08-19 04:36:00,
2013-08-18 23:41:00,68.2,62.2,30.01,East,90,0.0,0.0,81,0.00,,,0.00,WUHU216HW,2013-08-19 04:41:00,
2013-08-18 23:46:00,68.0,62.1,30.01,East,90,0.0,0.0,81,0.00,,,0.00,WUHU216HW,2013-08-19 04:46:00,
2013-08-18 23:51:00,68.0,62.4,30.01,East,90,0.0,0.0,82,0.00,,,0.00,WUHU216HW,2013-08-19 04:51:00,
2013-08-18 23:56:00,67.7,62.0,30.01,East,90,0.0,0.0,82,0.00,,,0.00,WUHU216HW,2013-08-19 04:56:00,